Regional Weather Roundup
Issued by NWS

Home | Current Version | Previous Version | Text Only | Print | Product List | Glossary Off
Versions: 1 2 3 4 5 6 7 8 9 10 11 12 13 14 15 16 17 18 19 20 21 22 23 24 25 26 27 28 29 30 31 32 33 34 35 36 37 38 39 40 41 42 43 44 45 46 47 48 49 50

000
ASUS43 KMPX 240201
RWRMN
WEATHER ROUNDUP FOR MINNESOTA
NATIONAL WEATHER SERVICE TWIN CITIES/CHANHASSEN MN
900 PM CDT MON MAY 23 2016


NOTE: "FAIR" INDICATES FEW OR NO CLOUDS BELOW 12,000 FEET WITH NO
SIGNIFICANT WEATHER AND/OR OBSTRUCTIONS TO VISIBILITY. N/A MEANS
CURRENT SKY AND/OR WEATHER CONDITIONS ARE NOT AVAILABLE.

MNZ060>063-068>070-240300-
   Twin Cities Metro

CITY           SKY/WX    TMP DP  RH WIND       PRES   REMARKS
TWIN CITIES    CLOUDY    70  61  73 SW6       29.75R
ST PAUL        CLOUDY    70  60  70 S6        29.77R
CRYSTAL        TSTM      62  59  90 E7        29.76R FOG
EDEN PRAIRIE   CLOUDY    71  59  65 SW7       29.74S
SOUTH ST PAUL  CLOUDY    71  58  63 S3        29.76R
LAKE ELMO      FAIR      70  59  68 SW9       29.78R
$$
MNZ001>005-007-008-013>017-022>024-027-028-240300-
   Northwest Minnesota

CITY           SKY/WX    TMP DP  RH WIND       PRES   REMARKS
BEMIDJI        CLOUDY    67  55  65 CALM      29.72R
HALLOCK        CLOUDY    73  45  35 SW23G30   29.67R
ROSEAU         CLOUDY    73  46  38 CALM      29.68R
WARROAD        CLOUDY    72  50  46 SW3       29.68S
THIEF RVR FALL CLOUDY    72  54  53 SE5       29.70R
CROOKSTON      CLOUDY    73  55  53 CALM      29.68R
FOSSTON        CLOUDY    72  59  64 CALM      29.71R
DETROIT LAKES  PTCLDY    72  54  53 CALM      29.71S
MOORHEAD       LGT RAIN  70  54  56 NE13      29.69R
PARK RAPIDS    MOCLDY    73  55  53 CALM      29.71R
MAHNOMEN       LGT RAIN  68  53  56 NW8G16    29.70R
$$
MNZ006-009>011-018-025>026-240300-
   North Central Minnesota

CITY           SKY/WX    TMP DP  RH WIND       PRES   REMARKS
BAUDETTE       CLOUDY    67  46  47 CALM      29.69R
FLAG ISLAND    CLOUDY    66  54  63 CALM      29.66S
INTL FALLS     CLOUDY    65  54  67 CALM      29.70R
WASKISH        MOCLDY    64  59  82 MISG      29.71R
BIG FORK       CLOUDY    66  54  63 CALM      29.72R
LONGVILLE      CLOUDY    68  61  77 S6        29.72S
GRAND RAPIDS     N/A    N/A N/A N/A MISG        N/A
CRANE LAKE     CLOUDY    61  61 100 CALM      29.73S
ORR            CLOUDY    64  61  88 CALM      29.70R
COOK           CLOUDY    64  61  88 CALM      29.73R
WALKER         FAIR      65  59  82 N3        29.72R
$$
MNZ012-019>021-037-240300-
   Northeast Minnesota

CITY           SKY/WX    TMP DP  RH WIND       PRES   REMARKS
DULUTH         LGT RAIN  64  61  90 W6        29.76S
ELY            MOCLDY    64  55  72 SE5       29.75R
HIBBING        CLOUDY    67  59  75 S5        29.73R
EVELETH        CLOUDY    66  55  68 CALM      29.75R
DULUTH HARBOR  CLOUDY    66  63  88 W5        29.75R
TWO HARBORS    LGT RAIN  66  61  82 CALM      29.74S
SILVER BAY     RAIN      66  61  82 SW3       29.74R
GRAND MARAIS     N/A     52  47  83 SW6       29.75F
G MARAIS ARPRT CLOUDY    63  52  67 S6        29.79F
$$
MNZ029>031-032-039>041-046>048-054>057-064-240300-
   West Central Minnesota

CITY           SKY/WX    TMP DP  RH WIND       PRES   REMARKS
FERGUS FALLS   CLOUDY    72  52  49 SW5       29.65R
WHEATON        CLOUDY    75  57  53 S5        29.70R
MORRIS         CLOUDY    72  54  53 SW6       29.69S
ALEXANDRIA     LGT RAIN  70  58  65 SE8       29.72R
ELBOW LAKE     FAIR      72  53  51 SW5       29.70R
WADENA         CLOUDY    70  57  64 SE7       29.70S
GLENWOOD       CLOUDY    68  63  83 SE8       29.73R
APPLETON       CLOUDY    72  57  60 SW3       29.70R
BENSON         CLOUDY    73  55  53 SW6       29.71R
ORTONVILLE     CLOUDY    72  54  53 S5        29.70S
MADISON        CLOUDY    72  54  53 W3        29.71R
WILLMAR        MOCLDY    70  64  83 S3        29.74S
$$
MNZ033>034-036-042>043-049>051-058-059-240300-
   Central Minnesota

CITY           SKY/WX    TMP DP  RH WIND       PRES   REMARKS
ST CLOUD       LGT RAIN  64  62  93 S8        29.72F
PAYNESVILLE    CLOUDY    65  63  93 SE9       29.75R
AITKIN         CLOUDY    64  59  82 CALM      29.71F
PINE RIVER     CLOUDY    66  61  82 SE5       29.76S
BRAINERD       CLOUDY    64  61  90 CALM      29.72F
STAPLES        CLOUDY    66  59  77 SE6       29.71S
LONG PRAIRIE   FAIR      64  63  94 SE3       29.72S
LITTLE FALLS   CLOUDY    63  61  94 CALM      29.72S
LITCHFIELD     TSTM      64  64 100 SE6       29.76R
BUFFALO        TSTM      64  62  91 SW6       29.76R
MAPLE LAKE     TSTM      63  62  96 NW6       29.76R
HUTCHINSON     TSTM      65  64  99 W12G24    29.76R
$$
MNZ037-044-045-052-053-240300-
   East Central Minnesota

CITY           SKY/WX    TMP DP  RH WIND       PRES   REMARKS
PRINCETON      CLOUDY    64  63  94 CALM      29.75S
MORA           TSTM      64  61  88 CALM      29.76S
CAMBRIDGE      TSTM      66  57  72 SW3       29.74R
RUSH CITY      TSTM      67  65  90 SW5       29.74S
MOOSE LAKE     CLOUDY    63  61  94 CALM      29.77R
HINCKLEY       CLOUDY    68  64  88 NW3       29.76R
CLOQUET        CLOUDY    63  59  88 W7        29.78S
MCGREGOR       CLOUDY    63  61  94 SE6       29.74F
$$
MNZ071>073-080-081-089-090-097-098-240300-
   Southwest Minnesota

CITY           SKY/WX    TMP DP  RH WIND       PRES   REMARKS
MONTEVIDEO     CLOUDY    72  59  64 SW6       29.73R
GRANITE FALLS  CLOUDY    70  61  73 S16       29.74S
CANBY          CLOUDY    73  63  68 SW5       29.74R
MARSHALL       CLOUDY    68  61  78 S14       29.74R
REDWOOD FALLS  CLOUDY    66  60  81 SW18      29.72F
OLIVIA         CLOUDY    57  54  88 SW15      29.73S
PIPESTONE      CLOUDY    66  63  88 S9        29.77R
WINDOM         TSTM      64  61  88 SW14G22   29.80R
WORTHINGTON    LGT RAIN  65  61  87 S14       29.79F
JACKSON        RAIN      68  61  77 W3        29.81R
TRACY          CLOUDY    66  61  82 S14G20    29.76R
SLAYTON        CLOUDY    64  61  88 S12G17    29.79R
$$
MNZ065>067-074>077-082>085-091>093-240300-
   South Central Minnesota

CITY           SKY/WX    TMP DP  RH WIND       PRES   REMARKS
MANKATO        CLOUDY    70  57  64 S12       29.76R
NEW ULM        CLOUDY    66  63  88 SW22      29.73F
ST JAMES       RAIN      63  57  82 S16       29.78S
FAIRMONT       CLOUDY    66  61  82 W8        29.78F
GLENCOE        CLOUDY    68  64  88 CALM      29.74R
OWATONNA       CLOUDY    66  61  82 S12       29.78S
WASECA         CLOUDY    64  59  82 S14       29.79S
ALBERT LEA     PTCLDY    66  63  88 S8        29.80R
$$
MNZ078>079-086>088-094>096-240300-
   Southeast Minnesota

CITY           SKY/WX    TMP DP  RH WIND       PRES   REMARKS
ROCHESTER      PTCLDY    65  62  90 S9        29.81S
RED WING       CLOUDY    68  57  68 E3        29.76F
STANTON        MOCLDY    69  60  72 S8        29.75F
DODGE CENTER   PTCLDY    64  61  88 S9        29.80S
WINONA         MOCLDY    70  59  68 SW10      29.78S
AUSTIN         PTCLDY    64  61  88 SW5       29.80S
PRESTON        MOCLDY    64  60  88 S3        29.82F
$$
ABBREVIATIONS USED IN REMARKS
   TC - TEMPERATURES IN CELSIUS
  WCI - WIND CHILL INDEX
   HX - HEAT INDEX
  VSB - VISIBILITY
$$



USA.gov is the U.S. government's official web portal to all federal, state and local government web resources and services.